Cedar Bluff, VA

4:34 AM EDT on October 01, 2016 (GMT -0400)
Tazewell County

Weather History for KJFZ - December, 2011

Change the Weather History Date:

Saturday, December 17, 2011

  Actual Average (KBLF) Record (KBLF)
Temperature  
Mean Temperature 30 °F 37 °F  
Max Temperature 35 °F 44 °F 66 °F (2006)
Min Temperature 26 °F 29 °F -2 °F (1989)
Degree Days  
Heating Degree Days 34 28  
Month to date heating degree days 445  
Since 1 July heating degree days 1348  
Cooling Degree Days 0 0  
Month to date cooling degree days 0  
Year to date cooling degree days 853  
Moisture  
Dew Point 26 °F    
Average Humidity 85    
Maximum Humidity 100    
Minimum Humidity 56    
Precipitation  
Precipitation 0.00 in 0.09 in 0.72 in (2015)
Month to date precipitation 1.65  
Year to date precipitation 38.37  
Snow  
Snow 0.00 in - - ()
Month to date snowfall  
Since 1 July snowfall  
Snow Depth -    
Sea Level Pressure  
Sea Level Pressure 30.18 in    
Wind  
Wind Speed 6 mph (WNW)    
Max Wind Speed 9 mph    
Max Gust Speed -    
Visibility 9 miles    
Events      
T = Trace of Precipitation, MM = Missing Value Source: NWS Daily Summary

Daily Weather History Graph

Daily Weather History Graph

Search for Another Location

Airport or City:

Trip Planner

Search our weather history database for the weather conditions in past years. The results will help you decide how hot, cold, wet, or windy it might be!

Date:

Astronomy

Dec. 17, 2011 Rise Set
Actual Time 7:34 AM EST 5:11 PM EST
Civil Twilight 7:05 AM EST 5:41 PM EST
Nautical Twilight 6:32 AM EST 6:13 PM EST
Astronomical Twilight 6:01 AM EST 6:45 PM EST
Moon No Moon Rise 11:58 AM EST (12/17)
Length of Visible Light 10h 35m
Length of Day
9h 37m
Waning Gibbous, 54% of the Moon is Illuminated
Dec 17
Waning Gibbous
Dec 17
Last Quarter
Dec 24
New
Jan 1
First Quarter
Jan 9
Full

Hourly Weather History & Observations

Time (EST) Temp. Windchill Dew Point Humidity Pressure Visibility Wind Dir Wind Speed Gust Speed Precip Events Conditions
12:15 AM 32.0 °F 25.6 °F 32.0 °F 100% 30.17 in 5.0 mi NW 6.9 mph - N/A   Unknown
12:35 AM 32.0 °F 25.6 °F 32.0 °F 100% 30.17 in 5.0 mi NW 6.9 mph - N/A   Unknown
12:55 AM 32.0 °F 26.4 °F 32.0 °F 100% 30.17 in 1.2 mi NW 5.8 mph - N/A   Unknown
1:15 AM 32.0 °F 25.6 °F 32.0 °F 100% 30.17 in 9.0 mi NW 6.9 mph - N/A   Unknown
1:35 AM 32.0 °F 26.4 °F 32.0 °F 100% 30.17 in 10.0 mi WNW 5.8 mph - N/A   Unknown
1:55 AM 30.2 °F 24.3 °F 30.2 °F 100% 30.16 in 7.0 mi WNW 5.8 mph - N/A   Unknown
2:15 AM 30.2 °F 23.4 °F 30.2 °F 100% 30.18 in 4.0 mi WNW 6.9 mph - N/A   Unknown
2:35 AM 30.2 °F 24.3 °F 30.2 °F 100% 30.17 in 4.0 mi NW 5.8 mph - N/A   Unknown
2:55 AM 30.2 °F 24.3 °F 30.2 °F 100% 30.17 in 0.2 mi NW 5.8 mph - N/A   Unknown
3:15 AM 30.2 °F 23.4 °F 30.2 °F 100% 30.17 in 0.2 mi WNW 6.9 mph - N/A   Unknown
3:35 AM 30.2 °F 22.6 °F 30.2 °F 100% 30.17 in 0.2 mi WNW 8.1 mph - N/A   Unknown
3:55 AM 30.2 °F 21.9 °F 30.2 °F 100% 30.17 in 0.2 mi WNW 9.2 mph - N/A   Unknown
4:15 AM 30.2 °F 21.9 °F 28.4 °F 93% 30.18 in 0.2 mi WNW 9.2 mph - N/A   Unknown
4:35 AM 28.4 °F 21.2 °F 28.4 °F 100% 30.18 in 5.0 mi WNW 6.9 mph - N/A   Unknown
4:55 AM 28.4 °F 21.2 °F 28.4 °F 100% 30.17 in 10.0 mi NW 6.9 mph - N/A   Unknown
5:15 AM 28.4 °F 21.2 °F 28.4 °F 100% 30.18 in 10.0 mi NW 6.9 mph - N/A   Unknown
5:35 AM 28.4 °F 22.2 °F 28.4 °F 100% 30.18 in 10.0 mi Variable 5.8 mph - N/A   Unknown
5:55 AM 28.4 °F 22.2 °F 28.4 °F 100% 30.19 in 10.0 mi WNW 5.8 mph - N/A   Unknown
6:15 AM 28.4 °F 22.2 °F 28.4 °F 100% 30.18 in 10.0 mi NW 5.8 mph - N/A   Unknown
6:35 AM 28.4 °F 23.3 °F 28.4 °F 100% 30.18 in 10.0 mi WNW 4.6 mph - N/A   Unknown
7:15 AM 28.4 °F 22.2 °F 26.6 °F 93% 30.20 in 10.0 mi West 5.8 mph - N/A   Unknown
7:35 AM 26.6 °F 21.2 °F 26.6 °F 100% 30.20 in 10.0 mi Variable 4.6 mph - N/A   Unknown
8:15 AM 26.6 °F 19.1 °F 26.6 °F 100% 30.21 in 10.0 mi NW 6.9 mph - N/A   Unknown
8:35 AM 26.6 °F 18.2 °F 24.8 °F 93% 30.21 in 10.0 mi NW 8.1 mph - N/A   Unknown
8:55 AM 26.6 °F 21.2 °F 26.6 °F 100% 30.22 in 10.0 mi Variable 4.6 mph - N/A   Unknown
9:15 AM 26.6 °F 20.0 °F 26.6 °F 100% 30.23 in 10.0 mi NW 5.8 mph - N/A   Unknown
9:35 AM 26.6 °F 17.5 °F 24.8 °F 93% 30.22 in 10.0 mi WSW 9.2 mph - N/A   Unknown
9:55 AM 28.4 °F 22.2 °F 24.8 °F 86% 30.21 in 10.0 mi NNW 5.8 mph - N/A   Unknown
10:15 AM 28.4 °F 23.3 °F 26.6 °F 93% 30.21 in 10.0 mi NW 4.6 mph - N/A   Unknown
10:35 AM 28.4 °F 22.2 °F 26.6 °F 93% 30.22 in 10.0 mi West 5.8 mph - N/A   Unknown
10:55 AM 28.4 °F 24.6 °F 26.6 °F 93% 30.22 in 10.0 mi Variable 3.5 mph - N/A   Unknown
11:15 AM 28.4 °F 22.2 °F 26.6 °F 93% 30.21 in 10.0 mi Variable 5.8 mph - N/A   Unknown
11:35 AM 30.2 °F 23.4 °F 26.6 °F 86% 30.20 in 10.0 mi WNW 6.9 mph - N/A   Unknown
11:55 AM 30.2 °F 23.4 °F 26.6 °F 86% 30.19 in 10.0 mi Variable 6.9 mph - N/A   Unknown
12:15 PM 30.2 °F 22.6 °F 26.6 °F 86% 30.18 in 10.0 mi West 8.1 mph - N/A   Unknown
12:35 PM 33.8 °F 28.6 °F 28.4 °F 81% 30.17 in 10.0 mi Variable 5.8 mph - N/A   Unknown
12:55 PM 33.8 °F 27.7 °F 26.6 °F 75% 30.17 in 10.0 mi Variable 6.9 mph - N/A   Unknown
1:15 PM 30.2 °F 23.4 °F 26.6 °F 86% 30.17 in 10.0 mi WNW 6.9 mph - N/A   Unknown
1:35 PM 32.0 °F 24.8 °F 24.8 °F 75% 30.17 in 10.0 mi WNW 8.1 mph - N/A   Unknown
1:55 PM 33.8 °F 26.4 °F 26.6 °F 75% 30.17 in 10.0 mi West 9.2 mph - N/A   Unknown
2:15 PM 35.6 °F 28.6 °F 26.6 °F 70% 30.17 in 10.0 mi West 9.2 mph - N/A   Unknown
2:35 PM 35.6 °F 29.9 °F 26.6 °F 70% 30.17 in 10.0 mi West 6.9 mph - N/A   Unknown
2:55 PM 35.6 °F 29.2 °F 24.8 °F 65% 30.16 in 10.0 mi WNW 8.1 mph - N/A   Unknown
3:35 PM 35.6 °F 30.7 °F 24.8 °F 65% 30.16 in 10.0 mi WNW 5.8 mph - N/A   Unknown
3:55 PM 35.6 °F 29.2 °F 21.2 °F 56% 30.15 in 10.0 mi WNW 8.1 mph - N/A   Unknown
4:15 PM 35.6 °F 29.9 °F 21.2 °F 56% 30.15 in 10.0 mi West 6.9 mph - N/A   Unknown
4:35 PM 33.8 °F 28.6 °F 21.2 °F 60% 30.16 in 10.0 mi WNW 5.8 mph - N/A   Unknown
4:55 PM 33.8 °F 28.6 °F 21.2 °F 60% 30.16 in 10.0 mi WNW 5.8 mph - N/A   Unknown
5:15 PM 32.0 °F 26.4 °F 21.2 °F 64% 30.16 in 10.0 mi WNW 5.8 mph - N/A   Unknown
5:35 PM 30.2 °F - 21.2 °F 69% 30.16 in 10.0 mi Calm Calm - N/A   Unknown
5:55 PM 30.2 °F 25.4 °F 21.2 °F 69% 30.16 in 10.0 mi WNW 4.6 mph - N/A   Unknown
6:15 PM 30.2 °F 25.4 °F 21.2 °F 69% 30.15 in 10.0 mi WNW 4.6 mph - N/A   Unknown
6:35 PM 30.2 °F 25.4 °F 21.2 °F 69% 30.15 in 10.0 mi West 4.6 mph - N/A   Unknown
7:15 PM 30.2 °F 24.3 °F 21.2 °F 69% 30.16 in 10.0 mi WNW 5.8 mph - N/A   Unknown
7:35 PM 30.2 °F 23.4 °F 21.2 °F 69% 30.17 in 10.0 mi WNW 6.9 mph - N/A   Unknown
7:55 PM 28.4 °F 22.2 °F 21.2 °F 74% 30.18 in 10.0 mi West 5.8 mph - N/A   Unknown
8:15 PM 28.4 °F 21.2 °F 21.2 °F 74% 30.17 in 10.0 mi WNW 6.9 mph - N/A   Unknown
8:35 PM 28.4 °F 22.2 °F 21.2 °F 74% 30.18 in 10.0 mi WNW 5.8 mph - N/A   Unknown
8:55 PM 28.4 °F 22.2 °F 23.0 °F 80% 30.18 in 10.0 mi WNW 5.8 mph - N/A   Unknown
9:15 PM 28.4 °F 23.3 °F 23.0 °F 80% 30.18 in 10.0 mi West 4.6 mph - N/A   Unknown
9:35 PM 28.4 °F 23.3 °F 23.0 °F 80% 30.17 in 10.0 mi West 4.6 mph - N/A   Unknown
9:55 PM 28.4 °F 22.2 °F 23.0 °F 80% 30.17 in 10.0 mi West 5.8 mph - N/A   Unknown
10:15 PM 28.4 °F 22.2 °F 23.0 °F 80% 30.18 in 10.0 mi West 5.8 mph - N/A   Unknown
10:35 PM 28.4 °F 21.2 °F 23.0 °F 80% 30.17 in 10.0 mi WSW 6.9 mph - N/A   Unknown
10:55 PM 28.4 °F 22.2 °F 23.0 °F 80% 30.17 in 10.0 mi West 5.8 mph - N/A   Unknown
11:55 PM 28.4 °F 21.2 °F 24.8 °F 86% 30.16 in 10.0 mi West 6.9 mph - N/A   Unknown